Regional Weather Roundup
Issued by NWS

Home | Current Version | Previous Version | Text Only | Print | Product List | Glossary Off
Versions: 1 2 3 4 5 6 7 8 9 10 11 12 13 14 15 16 17 18 19 20 21 22 23 24 25 26 27 28

000
ASUS45 KBOU 092310
RWRCO

WEATHER ROUNDUP FOR COLORADO
NATIONAL WEATHER SERVICE DENVER/BOULDER CO
400 PM MST SAT DEC 09 2017

NOTE: "FAIR" INDICATES FEW OR NO CLOUDS BELOW 12000 FEET WITH NO
SIGNIFICANT WEATHER AND/OR OBSTRUCTIONS TO VISIBILITY.

COZ001>005-013-030-031-100000-
...NORTHWEST COLORADO...

CITY           SKY/WX    TMP DP  RH WIND       PRES   REMARKS
CRAIG          FAIR      32  19  58 CALM      30.50S
HAYDEN         FAIR      33  17  51 CALM      30.52R
MEEKER         FAIR      49   0  13 N3        30.47S
RABBIT EARS PA FAIR      23  14  68 W8        30.51S WCI  14
STEAMBOAT SPGS FAIR      33  18  53 CALM      30.51R
WALDEN         FAIR      32  14  47 S6        30.50R WCI  26
$$

COZ006>008-011-100000-
...WEST CENTRAL VALLEYS...

CITY           SKY/WX    TMP DP  RH WIND       PRES   REMARKS
GRAND JUNCTION FAIR      48  11  22 NW3       30.47F
MONTROSE       FAIR      46   6  19 N5        30.49F
EAGLE          FAIR      36  14  40 CALM      30.53S
RIFLE          FAIR      45   8  22 CALM      30.48S
DELTA          FAIR      49   7  18 CALM      30.48F
NUCLA          FAIR      50   3  14 CALM      30.49F
$$

COZ017>023-064>068-100000-
...SOUTHWEST COLORADO...

CITY           SKY/WX    TMP DP  RH WIND       PRES   REMARKS
DURANGO        FAIR      48   6  18 SW9       30.43S
CORTEZ         FAIR      47   6  18 SW8       30.45S
PAGOSA SPRINGS FAIR      49  -4  11 S8        30.45R
TELLURIDE      FAIR      44 -12   9 W5        30.52S
WOLF CREEK PAS FAIR      32  -8  18 SW8       30.60S WCI  25
$$

COZ009-010-012-014-032>034-037-058>063-100000-
...CENTRAL COLORADO...

CITY           SKY/WX    TMP DP  RH WIND       PRES   REMARKS
ASPEN          FAIR      37   2  22 CALM      30.48R
BUENA VISTA    FAIR      46 -10   9 NW12G21   30.42R
COPPER MTN     NOT AVBL
BERTHOUD PASS  FAIR      14   3  62 N8G22     30.51R WCI   3
COTTONWOOD PAS FAIR      45 -33   3 W16G25    30.47R
GUNNISON       FAIR      42   3  19 VRB3      30.48S
KREMMLING      FAIR      27  18  69 CALM      30.56S
LEADVILLE      FAIR      32  -5  20 NW8       30.48R WCI  25
MONARCH PASS   FAIR      28  -4  24 SW16      30.64R WCI  17
SALIDA         FAIR      50  -6   9 W9        30.47S
SUNLIGHT       FAIR      28  -6  22 SW6       30.58S WCI  22
WILKERSON PASS FAIR      32 -13  14 NW6       30.52R WCI  26
$$

COZ069>075-100000-
...SAN LUIS VALLEY/SANGRE DE CRISTO MOUNTAINS...

CITY           SKY/WX    TMP DP  RH WIND       PRES   REMARKS
ALAMOSA        FAIR      45  -4  13 S3        30.43R
DEL NORTE      FAIR      45   0  15 E7        30.44S
LA VETA PASS   FAIR      34  -2  21 SW20G29     N/A  WCI  22
SAGUACHE       FAIR      46  -6  11 N7        30.44S
$$

COZ035-036-038>040-100000-
...NORTHERN COLORADO FRONT RANGE...

CITY           SKY/WX    TMP DP  RH WIND       PRES   REMARKS
DENVER INTL AP FAIR      52   0  12 NE9       30.32R
DMNS CITY PARK NOT AVBL
AURORA         PTCLDY    52   1  12 E8        30.33R
FRONT RANGE AP PTCLDY    54   1  12 NE9       30.33R
ERIE MUNI ARPT FAIR      57  -2   9 E9        30.37R
BOULDER MUN AP FAIR      55   5  13 W5        30.32R
CENTENNIAL     FAIR      55   2  11 N10       30.32R
BROOMFIELD     PTCLDY    55   1  11 W23       30.33R
FORT COLLINS   FAIR      55   8  15 S6        30.31R
LONGMONT       FAIR      57   4  11 E7        30.33R
$$

COZ041-046-047-076>085-087-088-100000-
...PIKES PEAK/PALMER DIVIDE AND SOUTHERN FOOTHILLS...

CITY           SKY/WX    TMP DP  RH WIND       PRES   REMARKS
COLO. SPRINGS  FAIR      52  -4  10 SE10      30.34R
A. F. ACADEMY  FAIR      52 -10   7 S7        30.33R
SCHRIEVER AFB  FAIR      50  -5  10 SE7       30.34R
CHEYENNE MTN   FAIR      49  -5  10 S10       30.30R
ELLICOTT         N/A    N/A N/A N/A SE8       30.33R
FALCON         FAIR      49  -8   9 SE6       30.37R
FORT CARSON    FAIR      53  -7   8 SE8       30.31R
LIMON          FAIR      52  -1  11 N10       30.31R
MONUMENT HILL  FAIR      46   0  14 N7        30.37R
CANON CITY     FAIR      59   5  11 E9G17     30.28R
WALSENBURG     FAIR      57   1  10 SW7       30.32S
TRINIDAD       FAIR      55  -3   9 SE7       30.33S
$$

COZ042>045-048>051-090-091-100000-
...NORTHEAST COLORADO...

CITY           SKY/WX    TMP DP  RH WIND       PRES   REMARKS
GREELEY ARPT   FAIR      54   5  14 NW12      30.30R
AKRON          FAIR      50   2  14 NW10      30.29R
BURLINGTON     FAIR      54   6  14 N9        30.28R
WRAY           FAIR      55   3  12 NW12      30.25S
YUMA           FAIR      52   5  15 NW14      30.27R
STERLING       FAIR      54   9  16 NW14      30.27R
HOLYOKE        FAIR      59   7  12 NW13G18   30.24S
FORT MORGAN    FAIR      53  -1  11 N7        30.31R
$$

COZ086-089-092>099-100000-
...SOUTHEAST COLORADO...

CITY           SKY/WX    TMP DP  RH WIND       PRES   REMARKS
PUEBLO         FAIR      58  -2   8 SE10      30.28S
LA JUNTA       FAIR      60   1   9 N3        30.28F
LAMAR          FAIR      59   4  11 NE7       30.27R
SPRINGFIELD      N/A     53   6  15 NW5       30.31R
$$




USA.gov is the U.S. government's official web portal to all federal, state and local government web resources and services.